Beatrice, NE

5:57 PM CDT on October 16, 2017 (GMT -0500)
Beatrice Municipal

Weather History for KBIE - January, 2002

Change the Weather History Date:

Sunday, January 20, 2002

  Actual Average Record
Temperature  
Mean Temperature 32 °F -  
Max Temperature 42 °F 35 °F 66 °F (1997)
Min Temperature 23 °F 16 °F -11 °F (1962)
Degree Days  
Heating Degree Days 32    
Moisture  
Dew Point 19 °F    
Average Humidity 60    
Maximum Humidity 80    
Minimum Humidity 39    
Precipitation  
Precipitation 0.00 in - - ()
Sea Level Pressure  
Sea Level Pressure 29.70 in    
Wind  
Wind Speed 11 mph (SSW)    
Max Wind Speed 22 mph    
Max Gust Speed 29 mph    
Visibility 10 miles    
Events      
Averages and records for this station are not official NWS values.
T = Trace of Precipitation, MM = Missing Value Source: NWS Daily Summary

Daily Weather History Graph

Daily Weather History Graph

Search for Another Location

Airport or City:

Trip Planner

Search our weather history database for the weather conditions in past years. The results will help you decide how hot, cold, wet, or windy it might be!

Date:

Astronomy

Jan. 20, 2002 Rise Set
Actual Time 7:45 AM CST 5:31 PM CST
Civil Twilight 7:15 AM CST 6:00 PM CST
Nautical Twilight 6:42 AM CST 6:33 PM CST
Astronomical Twilight 6:10 AM CST 7:06 PM CST
Moon 11:35 AM CST (1/20) No Moon Set
Length of Visible Light 10h 44m
Length of Day
9h 45m
Waxing Crescent, 41% of the Moon is Illuminated
Jan 20
Waxing Crescent
Jan 21
First Quarter
Jan 28
Full
Feb 4
Last Quarter
Feb 12
New

Hourly Weather History & Observations

Time (CST) Temp. Windchill Dew Point Humidity Pressure Visibility Wind Dir Wind Speed Gust Speed Precip Events Conditions
12:12 AM 26.6 °F 16.2 °F 19.4 °F 74% 29.87 in 10.0 mi South 11.5 mph - N/A   Clear
12:32 AM 26.6 °F 16.2 °F 17.6 °F 69% 29.86 in 10.0 mi South 11.5 mph - N/A   Clear
1:10 AM 26.6 °F 16.2 °F 19.4 °F 74% 29.85 in 10.0 mi South 11.5 mph - N/A   Clear
2:11 AM 26.6 °F 20.0 °F 19.4 °F 74% 29.84 in 10.0 mi South 5.8 mph - N/A   Clear
2:30 AM 26.6 °F 18.2 °F 19.4 °F 74% 29.83 in 10.0 mi South 8.1 mph - N/A   Clear
3:11 AM 24.8 °F 15.3 °F 19.4 °F 80% 29.82 in 10.0 mi SSE 9.2 mph - N/A   Clear
3:30 AM 26.6 °F 15.7 °F 19.4 °F 74% 29.80 in 10.0 mi SSE 12.7 mph - N/A   Clear
4:31 AM 26.6 °F 15.7 °F 17.6 °F 69% 29.79 in 10.0 mi South 12.7 mph - N/A   Clear
4:50 AM 26.6 °F 14.7 °F 19.4 °F 74% 29.78 in 10.0 mi South 15.0 mph - N/A   Clear
5:11 AM 26.6 °F 15.7 °F 17.6 °F 69% 29.78 in 10.0 mi South 12.7 mph - N/A   Clear
5:30 AM 26.6 °F 16.2 °F 19.4 °F 74% 29.79 in 10.0 mi South 11.5 mph - N/A   Clear
5:52 AM 26.6 °F 16.8 °F 17.6 °F 69% 29.78 in 10.0 mi SSE 10.4 mph - N/A   Clear
6:10 AM 26.6 °F 15.7 °F 17.6 °F 69% 29.75 in 10.0 mi SSE 12.7 mph - N/A   Clear
6:34 AM 26.6 °F 16.2 °F 17.6 °F 69% 29.75 in 10.0 mi SE 11.5 mph - N/A   Clear
7:10 AM 28.4 °F 16.6 °F 17.6 °F 64% 29.73 in 10.0 mi SSE 16.1 mph 23.0 mph N/A   Clear
7:50 AM 28.4 °F 17.0 °F 19.4 °F 69% 29.71 in 10.0 mi SSE 15.0 mph 19.6 mph N/A   Clear
8:12 AM 28.4 °F 18.0 °F 17.6 °F 64% 29.71 in 10.0 mi SE 12.7 mph - N/A   Clear
8:32 AM 28.4 °F 18.5 °F 17.6 °F 64% 29.71 in 10.0 mi SSE 11.5 mph 18.4 mph N/A   Clear
8:50 AM 28.4 °F 16.2 °F 17.6 °F 64% 29.70 in 10.0 mi South 17.3 mph 20.7 mph N/A   Clear
9:12 AM 30.2 °F 18.9 °F 19.4 °F 64% 29.70 in 10.0 mi SSE 16.1 mph - N/A   Clear
9:52 AM 33.8 °F 23.5 °F 19.4 °F 56% 29.68 in 10.0 mi SSE 16.1 mph - N/A   Clear
10:10 AM 35.6 °F 27.1 °F 19.4 °F 52% 29.68 in 10.0 mi SSE 12.7 mph - N/A   Clear
10:30 AM 37.4 °F 27.8 °F 19.4 °F 48% 29.67 in 10.0 mi South 17.3 mph 20.7 mph N/A   Clear
10:52 AM 37.4 °F 27.8 °F 19.4 °F 48% 29.66 in 10.0 mi South 17.3 mph 25.3 mph N/A   Clear
11:13 AM 39.2 °F 29.8 °F 19.4 °F 45% 29.66 in 10.0 mi South 18.4 mph 26.5 mph N/A   Clear
11:30 AM 39.2 °F 29.0 °F 19.4 °F 45% 29.65 in 10.0 mi South 21.9 mph 28.8 mph N/A   Clear
11:52 AM 39.2 °F 29.6 °F 19.4 °F 45% 29.64 in 10.0 mi SSW 19.6 mph 27.6 mph N/A   Clear
12:10 PM 41.0 °F 31.6 °F 19.4 °F 42% 29.62 in 10.0 mi South 20.7 mph 26.5 mph N/A   Clear
12:52 PM 41.0 °F 32.8 °F 19.4 °F 42% 29.59 in 10.0 mi SSW 16.1 mph - N/A   Clear
1:10 PM 41.0 °F 33.5 °F 19.4 °F 42% 29.58 in 10.0 mi SSW 13.8 mph - N/A   Clear
1:31 PM 41.0 °F 35.8 °F 19.4 °F 42% 29.57 in 10.0 mi SSW 8.1 mph 19.6 mph N/A   Clear
1:50 PM 42.8 °F 36.2 °F 19.4 °F 39% 29.57 in 10.0 mi SW 12.7 mph 16.1 mph N/A   Clear
2:11 PM 42.8 °F 39.3 °F 19.4 °F 39% 29.56 in 10.0 mi SW 5.8 mph - N/A   Clear
2:30 PM 41.0 °F 35.8 °F 19.4 °F 42% 29.56 in 10.0 mi West 8.1 mph - N/A   Clear
3:31 PM 42.8 °F 38.6 °F 19.4 °F 39% 29.57 in 10.0 mi SW 6.9 mph - N/A   Clear
3:53 PM 42.8 °F 40.1 °F 19.4 °F 39% 29.58 in 10.0 mi West 4.6 mph - N/A   Clear
4:10 PM 42.8 °F 38.6 °F 19.4 °F 39% 29.58 in 10.0 mi West 6.9 mph - N/A   Clear
4:31 PM 41.0 °F 35.8 °F 19.4 °F 42% 29.59 in 10.0 mi WSW 8.1 mph - N/A   Clear
6:12 PM 33.8 °F 27.7 °F 19.4 °F 56% 29.64 in 10.0 mi WNW 6.9 mph - N/A   Clear
6:30 PM 33.8 °F 27.7 °F 19.4 °F 56% 29.64 in 10.0 mi WNW 6.9 mph - N/A   Clear
6:52 PM 33.8 °F 27.0 °F 19.4 °F 56% 29.65 in 10.0 mi WNW 8.1 mph - N/A   Scattered Clouds
7:10 PM 32.0 °F 24.8 °F 19.4 °F 60% 29.66 in 10.0 mi WNW 8.1 mph - N/A   Clear
7:32 PM 30.2 °F 21.9 °F 19.4 °F 64% 29.67 in 10.0 mi West 9.2 mph - N/A   Clear
7:50 PM 30.2 °F 22.6 °F 17.6 °F 60% 29.67 in 10.0 mi West 8.1 mph - N/A   Clear
8:32 PM 28.4 °F 19.1 °F 17.6 °F 64% 29.69 in 10.0 mi WNW 10.4 mph - N/A   Clear
9:10 PM 26.6 °F 19.1 °F 17.6 °F 69% 29.70 in 10.0 mi West 6.9 mph - N/A   Clear
10:32 PM 24.8 °F - 17.6 °F 74% 29.71 in 10.0 mi Calm Calm - N/A   Clear
10:50 PM 24.8 °F 19.1 °F 17.6 °F 74% 29.72 in 10.0 mi West 4.6 mph - N/A   Clear
11:12 PM 23.0 °F 18.4 °F 17.6 °F 80% 29.73 in 10.0 mi WSW 3.5 mph - N/A   Clear
11:30 PM 23.0 °F - 17.6 °F 80% 29.74 in 10.0 mi Calm Calm - N/A   Clear
11:52 PM 23.0 °F - 17.6 °F 80% 29.74 in 10.0 mi Calm Calm - N/A   Clear